Live Position
Loading 3D Globe...
About Lemur-2-PeterG
Group: 3 satellites
Description loading...
Upcoming Passes
Passes for default location (London). Set your location on the main map for personalized predictions.
Altitude History
Loading altitude history...
No altitude history available
Two-Line Element Set
1 42841U 17042S 26111.75838226 .00019931 00000-0 65391-3 0 9995
2 42841 97.3998 296.8000 0004586 167.4579 192.6777 15.31631532479798
Epoch: Apr 21, 2026 •
Age: 9 hours
Current Status
Altitude 470.5 km
Velocity 7.63 km/s
Sub-Earth Point 3.93°N,
134.62°W
Launch Date Jul 14, 2017
Age 8.7 years
Type other
Technical Details
Classification Payload
Mass 4.00 kg
Dry Mass 4.00 kg
Total Mass 4.00 kg
Length 0.30 m
Diameter 0.10 m
Span 0.30 m
Shape Box
Manufacturer SPIREG
Bus Type Cubesat 3U
Phase Status In Orbit
Owner/State SPIRE/US
Most Searched
Loading...